KAC185 OKKK-OEJN

Flight info

Callsign KAC185
Flight time 2h 19m
Altitude 40000
Route DEKOB P517 KSB B417 GAS G674 PMA B544 NOMDA
Aircraft A333/H-SDE3GHIJ2J3J5M1RVWXY/LB2D1

Departure

Time 2026-05-07 09:58
Airport Kuwait International Airport (OKKK)

Arrival

Time 2026-05-07 12:18
Airport King Abdulaziz International Airport (OEJN)
Time Latitude Longitude Altitude Speed Heading
2026-05-07 09:31 29.23800 47.96838 192 ft 0 kts 330°
2026-05-07 09:38 29.23800 47.96839 192 ft 0 kts 331°
2026-05-07 09:39 29.23799 47.96839 192 ft 0 kts 331°
2026-05-07 09:45 29.23798 47.96839 192 ft 2 kts 331°
2026-05-07 09:46 29.23783 47.96845 209 ft 2 kts 336°
2026-05-07 09:46 29.23769 47.96853 207 ft 4 kts 329°
2026-05-07 09:46 29.23741 47.96879 207 ft 4 kts 310°
2026-05-07 09:46 29.23734 47.96889 207 ft 3 kts 309°
2026-05-07 09:50 29.23737 47.96882 207 ft 2 kts 296°
2026-05-07 09:51 29.23735 47.96866 208 ft 2 kts 258°
2026-05-07 09:51 29.23726 47.96845 209 ft 4 kts 243°
2026-05-07 09:51 29.23711 47.96812 210 ft 5 kts 242°
2026-05-07 09:51 29.23696 47.96775 205 ft 5 kts 248°
2026-05-07 09:52 29.23682 47.96733 217 ft 6 kts 251°
2026-05-07 09:52 29.23667 47.96686 220 ft 7 kts 244°
2026-05-07 09:52 29.23629 47.96647 222 ft 9 kts 202°
2026-05-07 09:52 29.23558 47.96668 222 ft 14 kts 155°
2026-05-07 09:53 29.23445 47.96730 225 ft 21 kts 152°
2026-05-07 09:53 29.23296 47.96805 225 ft 26 kts 156°
2026-05-07 09:53 29.23129 47.96894 219 ft 26 kts 154°
2026-05-07 09:53 29.22957 47.96991 218 ft 29 kts 153°
2026-05-07 09:54 29.22766 47.97084 222 ft 30 kts 155°
2026-05-07 09:54 29.22574 47.97188 218 ft 30 kts 149°
2026-05-07 09:54 29.22385 47.97293 224 ft 30 kts 155°
2026-05-07 09:54 29.22191 47.97395 226 ft 31 kts 156°
2026-05-07 09:55 29.21986 47.97500 221 ft 34 kts 156°
2026-05-07 09:55 29.21766 47.97621 215 ft 36 kts 156°
2026-05-07 09:55 29.21538 47.97742 220 ft 36 kts 153°
2026-05-07 09:55 29.21355 47.97842 218 ft 14 kts 156°
2026-05-07 09:56 29.21277 47.97838 221 ft 10 kts 222°
2026-05-07 09:56 29.21259 47.97818 224 ft 0 kts 237°
2026-05-07 09:56 29.21246 47.97757 216 ft 15 kts 278°
2026-05-07 09:57 29.21316 47.97631 219 ft 21 kts 315°
2026-05-07 09:57 29.21414 47.97557 223 ft 0 kts 335°
2026-05-07 09:58 29.21580 47.97470 217 ft 61 kts 335°
2026-05-07 09:58 29.22183 47.97149 224 ft 127 kts 335°
2026-05-07 09:58 29.23091 47.96694 774 ft 146 kts 337°
2026-05-07 09:58 29.24077 47.96195 1453 ft 167 kts 335°
2026-05-07 09:59 29.25198 47.95587 1946 ft 187 kts 335°
2026-05-07 09:59 29.26400 47.94933 2632 ft 195 kts 335°
2026-05-07 09:59 29.27631 47.94267 3353 ft 201 kts 336°
2026-05-07 09:59 29.28934 47.93569 4027 ft 213 kts 337°
2026-05-07 10:00 29.30301 47.92835 4704 ft 221 kts 336°
2026-05-07 10:00 29.31728 47.92074 5335 ft 231 kts 335°
2026-05-07 10:00 29.33200 47.91264 6041 ft 236 kts 329°
2026-05-07 10:00 29.34413 47.90038 6815 ft 233 kts 299°
2026-05-07 10:01 29.34835 47.88296 7570 ft 228 kts 264°
2026-05-07 10:01 29.34345 47.86601 8335 ft 226 kts 238°
2026-05-07 10:01 29.33477 47.85101 9184 ft 227 kts 234°
2026-05-07 10:01 29.32547 47.83626 9975 ft 229 kts 234°
2026-05-07 10:02 29.31608 47.82133 10729 ft 233 kts 234°
2026-05-07 10:02 29.30550 47.80723 11461 ft 235 kts 220°
2026-05-07 10:02 29.29132 47.79849 12210 ft 238 kts 195°
2026-05-07 10:02 29.27429 47.79809 12752 ft 255 kts 169°
2026-05-07 10:03 29.25770 47.80714 13029 ft 282 kts 150°
2026-05-07 10:03 29.24114 47.82052 13491 ft 297 kts 147°
2026-05-07 10:03 29.22435 47.83471 14153 ft 302 kts 147°
2026-05-07 10:03 29.20690 47.84836 14786 ft 305 kts 155°
2026-05-07 10:04 29.18753 47.85910 15170 ft 318 kts 160°
2026-05-07 10:04 29.16650 47.86909 15420 ft 336 kts 161°
2026-05-07 10:04 29.14418 47.87938 15662 ft 354 kts 161°
2026-05-07 10:04 29.12079 47.89016 15886 ft 370 kts 161°
2026-05-07 10:05 29.09643 47.90144 16193 ft 383 kts 161°
2026-05-07 10:05 29.07152 47.91301 16662 ft 390 kts 161°
2026-05-07 10:05 29.04622 47.92478 17182 ft 395 kts 162°
2026-05-07 10:05 29.02066 47.93667 17706 ft 398 kts 162°
2026-05-07 10:06 28.99489 47.94864 18234 ft 402 kts 162°
2026-05-07 10:06 28.96882 47.96075 18684 ft 406 kts 162°
2026-05-07 10:06 28.94234 47.97189 19143 ft 405 kts 169°
2026-05-07 10:06 28.91511 47.97685 19613 ft 401 kts 180°
2026-05-07 10:07 28.88719 47.97827 20115 ft 402 kts 182°
2026-05-07 10:07 28.85913 47.97905 20596 ft 404 kts 182°
2026-05-07 10:07 28.83094 47.97980 21084 ft 406 kts 182°
2026-05-07 10:07 28.80263 47.98060 21549 ft 409 kts 182°
2026-05-07 10:08 28.77410 47.98145 22012 ft 411 kts 182°
2026-05-07 10:08 28.74540 47.98230 22471 ft 413 kts 183°
2026-05-07 10:08 28.71674 47.98069 22940 ft 411 kts 192°
2026-05-07 10:08 28.68912 47.97285 23382 ft 409 kts 203°
2026-05-07 10:09 28.66368 47.95841 23781 ft 408 kts 213°
2026-05-07 10:09 28.63993 47.94061 24191 ft 409 kts 216°
2026-05-07 10:09 28.61649 47.92221 24607 ft 411 kts 216°
2026-05-07 10:09 28.59318 47.90388 25004 ft 413 kts 216°
2026-05-07 10:10 28.56950 47.88534 25410 ft 415 kts 216°
2026-05-07 10:10 28.54565 47.86673 25823 ft 416 kts 217°
2026-05-07 10:10 28.52271 47.84660 26175 ft 418 kts 222°
2026-05-07 10:10 28.50119 47.82422 26548 ft 419 kts 225°
2026-05-07 10:11 28.48029 47.80099 26930 ft 421 kts 226°
2026-05-07 10:11 28.45962 47.77729 27286 ft 424 kts 226°
2026-05-07 10:11 28.43883 47.75323 27649 ft 426 kts 226°
2026-05-07 10:11 28.41805 47.72920 28016 ft 427 kts 226°
2026-05-07 10:12 28.39710 47.70513 28386 ft 429 kts 226°
2026-05-07 10:12 28.37599 47.68102 28747 ft 431 kts 226°
2026-05-07 10:12 28.35472 47.65687 29100 ft 433 kts 226°
2026-05-07 10:12 28.33360 47.63294 29464 ft 435 kts 226°
2026-05-07 10:13 28.31213 47.60867 29786 ft 437 kts 226°
2026-05-07 10:13 28.29054 47.58429 30105 ft 439 kts 226°
2026-05-07 10:13 28.26884 47.55980 30385 ft 440 kts 226°
2026-05-07 10:13 28.24728 47.53516 30730 ft 439 kts 228°
2026-05-07 10:14 28.22785 47.50861 31225 ft 434 kts 234°
2026-05-07 10:14 28.21186 47.47974 31745 ft 430 kts 242°
2026-05-07 10:14 28.19985 47.44891 32315 ft 426 kts 249°
2026-05-07 10:14 28.19190 47.41658 32873 ft 423 kts 255°
2026-05-07 10:15 28.18587 47.38443 33447 ft 420 kts 256°
2026-05-07 10:15 28.18055 47.35213 34056 ft 415 kts 257°
2026-05-07 10:15 28.17559 47.32009 34555 ft 411 kts 257°
2026-05-07 10:15 28.17071 47.28828 34979 ft 408 kts 257°
2026-05-07 10:16 28.16581 47.25667 35363 ft 407 kts 257°
2026-05-07 10:16 28.16083 47.22513 35756 ft 405 kts 257°
2026-05-07 10:16 28.15581 47.19385 36153 ft 403 kts 256°
2026-05-07 10:16 28.15075 47.16270 36562 ft 400 kts 256°
2026-05-07 10:17 28.14571 47.13179 37020 ft 397 kts 256°
2026-05-07 10:17 28.14069 47.10119 37412 ft 395 kts 256°
2026-05-07 10:17 28.13566 47.07065 37773 ft 393 kts 256°
2026-05-07 10:17 28.13066 47.04028 38120 ft 392 kts 256°
2026-05-07 10:18 28.12567 47.00998 38463 ft 390 kts 256°
2026-05-07 10:18 28.12069 46.97978 38779 ft 389 kts 256°
2026-05-07 10:18 28.11572 46.94969 39032 ft 388 kts 256°
2026-05-07 10:18 28.11081 46.92003 39254 ft 388 kts 256°
2026-05-07 10:19 28.10582 46.88991 39441 ft 389 kts 256°
2026-05-07 10:19 28.10083 46.85978 39631 ft 389 kts 256°
2026-05-07 10:19 28.09584 46.82961 39840 ft 390 kts 256°
2026-05-07 10:19 28.09083 46.79939 39989 ft 392 kts 255°
2026-05-07 10:20 28.08576 46.76888 40001 ft 396 kts 256°
2026-05-07 10:20 28.07540 46.70672 40007 ft 406 kts 256°
2026-05-07 10:21 28.06498 46.64421 40012 ft 407 kts 256°
2026-05-07 10:21 28.05449 46.58124 40010 ft 407 kts 256°
2026-05-07 10:22 28.04392 46.51799 40017 ft 408 kts 256°
2026-05-07 10:22 28.03333 46.45486 40018 ft 408 kts 256°
2026-05-07 10:23 28.02275 46.39198 40025 ft 408 kts 256°
2026-05-07 10:23 28.01208 46.32871 40028 ft 409 kts 255°
2026-05-07 10:24 28.00137 46.26543 40024 ft 409 kts 255°
2026-05-07 10:24 27.99063 46.20220 40027 ft 409 kts 255°
2026-05-07 10:25 27.98002 46.13933 40023 ft 409 kts 255°
2026-05-07 10:25 27.96937 46.07599 40029 ft 409 kts 255°
2026-05-07 10:26 27.95869 46.01268 40024 ft 409 kts 255°
2026-05-07 10:26 27.94800 45.94949 40029 ft 407 kts 255°
2026-05-07 10:27 27.93730 45.88649 40022 ft 407 kts 255°
2026-05-07 10:27 27.92658 45.82362 40027 ft 407 kts 255°
2026-05-07 10:28 27.91585 45.76079 40049 ft 405 kts 255°
2026-05-07 10:28 27.90514 45.69829 40033 ft 405 kts 255°
2026-05-07 10:29 27.89446 45.63620 40027 ft 405 kts 255°
2026-05-07 10:29 27.87745 45.57603 40022 ft 401 kts 243°
2026-05-07 10:30 27.84745 45.52322 40040 ft 401 kts 230°
2026-05-07 10:30 27.82802 45.50036 40023 ft 403 kts 227°
2026-05-07 10:30 27.78702 45.45705 40043 ft 404 kts 225°
2026-05-07 10:31 27.74529 45.41454 40038 ft 404 kts 225°
2026-05-07 10:31 27.70395 45.37218 40027 ft 404 kts 225°
2026-05-07 10:32 27.66247 45.32935 40026 ft 404 kts 225°
2026-05-07 10:32 27.62106 45.28648 40043 ft 404 kts 225°
2026-05-07 10:33 27.57964 45.24364 40027 ft 404 kts 225°
2026-05-07 10:33 27.53909 45.19982 40026 ft 403 kts 227°
2026-05-07 10:34 27.50666 45.16209 40026 ft 402 kts 228°
2026-05-07 10:34 27.46797 45.11650 40028 ft 402 kts 228°
2026-05-07 10:35 27.42292 45.06384 40026 ft 401 kts 228°
2026-05-07 10:35 27.39035 45.02603 40027 ft 401 kts 228°
2026-05-07 10:36 27.35156 44.98114 40028 ft 397 kts 228°
2026-05-07 10:36 27.31308 44.93665 40024 ft 397 kts 228°
2026-05-07 10:37 27.27484 44.89245 40024 ft 396 kts 228°
2026-05-07 10:37 27.23638 44.84805 40020 ft 396 kts 228°
2026-05-07 10:38 27.19786 44.80362 40018 ft 396 kts 228°
2026-05-07 10:38 27.16005 44.76010 40021 ft 381 kts 228°
2026-05-07 10:39 27.12322 44.71773 40020 ft 374 kts 228°
2026-05-07 10:39 27.08707 44.67616 40008 ft 375 kts 228°
2026-05-07 10:40 27.05026 44.63382 40019 ft 379 kts 227°
2026-05-07 10:40 27.01286 44.59089 40026 ft 390 kts 227°
2026-05-07 10:41 26.97448 44.54690 40014 ft 396 kts 227°
2026-05-07 10:41 26.93614 44.50307 40009 ft 393 kts 227°
2026-05-07 10:42 26.89766 44.45913 40016 ft 394 kts 227°
2026-05-07 10:42 26.85984 44.41599 40026 ft 388 kts 227°
2026-05-07 10:43 26.82203 44.37285 40011 ft 392 kts 227°
2026-05-07 10:43 26.78378 44.32925 40004 ft 394 kts 227°
2026-05-07 10:44 26.74519 44.28532 40001 ft 396 kts 227°
2026-05-07 10:44 26.70683 44.24173 40005 ft 392 kts 227°
2026-05-07 10:45 26.66823 44.19787 40001 ft 396 kts 227°
2026-05-07 10:45 26.62971 44.15415 39992 ft 398 kts 227°
2026-05-07 10:46 26.59076 44.11000 39995 ft 398 kts 227°
2026-05-07 10:46 26.56303 44.07860 39991 ft 398 kts 227°
2026-05-07 10:47 26.52730 44.03817 39990 ft 394 kts 227°
2026-05-07 10:48 26.48873 43.99456 39978 ft 390 kts 227°
2026-05-07 10:48 26.45033 43.95117 39977 ft 397 kts 227°
2026-05-07 10:49 26.41240 43.90839 39974 ft 382 kts 227°
2026-05-07 10:49 26.37490 43.86611 39968 ft 383 kts 227°
2026-05-07 10:50 26.33745 43.82391 39968 ft 382 kts 227°
2026-05-07 10:50 26.30259 43.77947 39964 ft 380 kts 234°
2026-05-07 10:51 26.27831 43.73169 39968 ft 381 kts 242°
2026-05-07 10:52 26.26185 43.69288 39963 ft 384 kts 243°
2026-05-07 10:52 26.23989 43.63866 39968 ft 383 kts 243°
2026-05-07 10:53 26.21803 43.58467 39955 ft 382 kts 243°
2026-05-07 10:53 26.19592 43.53065 39978 ft 383 kts 243°
2026-05-07 10:54 26.17385 43.47707 39985 ft 383 kts 243°
2026-05-07 10:54 26.15156 43.42307 40008 ft 383 kts 243°
2026-05-07 10:55 26.12928 43.36918 39992 ft 383 kts 243°
2026-05-07 10:55 26.10701 43.31534 39989 ft 382 kts 243°
2026-05-07 10:56 26.08485 43.26187 39988 ft 383 kts 242°
2026-05-07 10:56 26.06251 43.20802 39995 ft 383 kts 242°
2026-05-07 10:57 26.04015 43.15419 39987 ft 382 kts 242°
2026-05-07 10:57 26.01784 43.10054 39980 ft 382 kts 242°
2026-05-07 10:58 25.99548 43.04687 39981 ft 382 kts 242°
2026-05-07 10:58 25.97310 42.99323 39977 ft 382 kts 242°
2026-05-07 10:59 25.95070 42.93959 39981 ft 383 kts 242°
2026-05-07 10:59 25.92830 42.88602 39977 ft 383 kts 242°
2026-05-07 11:00 25.90587 42.83238 39973 ft 382 kts 242°
2026-05-07 11:00 25.88342 42.77884 39972 ft 382 kts 242°
2026-05-07 11:01 25.86105 42.72557 39965 ft 382 kts 242°
2026-05-07 11:01 25.83850 42.67194 39964 ft 383 kts 242°
2026-05-07 11:02 25.81598 42.61841 39964 ft 383 kts 242°
2026-05-07 11:02 25.79358 42.56522 39961 ft 382 kts 242°
2026-05-07 11:03 25.77108 42.51187 39958 ft 382 kts 242°
2026-05-07 11:03 25.74856 42.45852 39959 ft 382 kts 242°
2026-05-07 11:04 25.72602 42.40521 39970 ft 382 kts 242°
2026-05-07 11:04 25.70338 42.35172 39953 ft 382 kts 242°
2026-05-07 11:05 25.68075 42.29833 39950 ft 382 kts 242°
2026-05-07 11:05 25.65824 42.24530 39949 ft 382 kts 242°
2026-05-07 11:06 25.63559 42.19198 39968 ft 382 kts 242°
2026-05-07 11:06 25.61291 42.13869 39937 ft 381 kts 242°
2026-05-07 11:07 25.59028 42.08555 39943 ft 381 kts 242°
2026-05-07 11:07 25.56766 42.03250 39946 ft 381 kts 242°
2026-05-07 11:08 25.54515 41.97981 39957 ft 381 kts 242°
2026-05-07 11:08 25.52251 41.92684 39941 ft 380 kts 242°
2026-05-07 11:09 25.49989 41.87398 39945 ft 380 kts 242°
2026-05-07 11:09 25.47724 41.82114 39931 ft 380 kts 241°
2026-05-07 11:10 25.45453 41.76823 39949 ft 381 kts 241°
2026-05-07 11:10 25.43177 41.71525 39937 ft 381 kts 241°
2026-05-07 11:11 25.40900 41.66230 39937 ft 381 kts 241°
2026-05-07 11:11 25.38623 41.60940 39940 ft 381 kts 241°
2026-05-07 11:12 25.37251 41.57757 39940 ft 381 kts 241°
2026-05-07 11:12 25.36976 41.57121 39936 ft 381 kts 241°
2026-05-07 11:13 25.34690 41.51823 39936 ft 381 kts 241°
2026-05-07 11:13 25.32402 41.46530 39941 ft 382 kts 241°
2026-05-07 11:14 25.30125 41.41267 39943 ft 382 kts 241°
2026-05-07 11:14 25.27830 41.35968 39945 ft 382 kts 241°
2026-05-07 11:15 25.25535 41.30676 39947 ft 382 kts 241°
2026-05-07 11:15 25.23240 41.25392 39951 ft 381 kts 241°
2026-05-07 11:16 25.20943 41.20110 39947 ft 382 kts 241°
2026-05-07 11:16 25.18636 41.14812 39952 ft 382 kts 241°
2026-05-07 11:17 25.16343 41.09552 39957 ft 382 kts 241°
2026-05-07 11:17 25.14038 41.04269 39952 ft 381 kts 241°
2026-05-07 11:18 25.11731 40.98990 39951 ft 381 kts 241°
2026-05-07 11:18 25.09424 40.93716 39916 ft 381 kts 240°
2026-05-07 11:19 25.07112 40.88438 39961 ft 382 kts 241°
2026-05-07 11:19 25.04795 40.83157 39946 ft 382 kts 241°
2026-05-07 11:20 25.02482 40.77891 39948 ft 381 kts 241°
2026-05-07 11:20 25.00167 40.72627 39946 ft 382 kts 241°
2026-05-07 11:21 24.97862 40.67392 39944 ft 382 kts 241°
2026-05-07 11:21 24.95920 40.62985 39917 ft 381 kts 240°
2026-05-07 11:22 24.93221 40.56867 39941 ft 383 kts 240°
2026-05-07 11:22 24.91267 40.52444 39940 ft 383 kts 240°
2026-05-07 11:23 24.88951 40.47203 39955 ft 383 kts 240°
2026-05-07 11:23 24.86616 40.41929 39939 ft 383 kts 240°
2026-05-07 11:24 24.84283 40.36663 39938 ft 382 kts 240°
2026-05-07 11:24 24.81947 40.31396 39917 ft 382 kts 240°
2026-05-07 11:25 24.79619 40.26154 39937 ft 383 kts 240°
2026-05-07 11:25 24.77271 40.20877 39943 ft 383 kts 240°
2026-05-07 11:26 24.74927 40.15609 39936 ft 383 kts 240°
2026-05-07 11:26 24.72582 40.10346 39943 ft 383 kts 240°
2026-05-07 11:27 24.70235 40.05084 39939 ft 383 kts 240°
2026-05-07 11:27 24.67887 39.99828 39924 ft 383 kts 240°
2026-05-07 11:28 24.65537 39.94568 39939 ft 384 kts 240°
2026-05-07 11:28 24.63194 39.89336 39941 ft 384 kts 240°
2026-05-07 11:29 24.60834 39.84070 39918 ft 384 kts 240°
2026-05-07 11:29 24.58466 39.78807 39926 ft 383 kts 239°
2026-05-07 11:30 24.55527 39.73971 39912 ft 380 kts 229°
2026-05-07 11:30 24.51560 39.70145 39908 ft 383 kts 216°
2026-05-07 11:31 24.46709 39.67635 39911 ft 389 kts 205°
2026-05-07 11:31 24.41569 39.65784 39915 ft 391 kts 203°
2026-05-07 11:32 24.33754 39.63133 39922 ft 391 kts 203°
2026-05-07 11:33 24.28564 39.61339 39926 ft 391 kts 203°
2026-05-07 11:33 24.23380 39.59528 39938 ft 391 kts 203°
2026-05-07 11:34 24.18234 39.57727 39958 ft 391 kts 203°
2026-05-07 11:34 24.13041 39.55911 39950 ft 391 kts 203°
2026-05-07 11:35 24.07851 39.54100 39937 ft 391 kts 203°
2026-05-07 11:35 24.02665 39.52292 39952 ft 391 kts 203°
2026-05-07 11:36 23.97478 39.50486 39953 ft 391 kts 203°
2026-05-07 11:36 23.92326 39.48693 39952 ft 391 kts 203°
2026-05-07 11:37 23.87134 39.46888 39925 ft 391 kts 203°
2026-05-07 11:37 23.81943 39.45085 39946 ft 391 kts 203°
2026-05-07 11:38 23.76757 39.43282 39949 ft 391 kts 203°
2026-05-07 11:38 23.71563 39.41486 39944 ft 392 kts 203°
2026-05-07 11:39 23.66361 39.39686 39938 ft 392 kts 203°
2026-05-07 11:39 23.61155 39.37880 39936 ft 393 kts 202°
2026-05-07 11:40 23.55964 39.36094 39855 ft 392 kts 202°
2026-05-07 11:40 23.53371 39.35201 39619 ft 390 kts 202°
2026-05-07 11:40 23.50783 39.34314 39401 ft 389 kts 202°
2026-05-07 11:40 23.48204 39.33434 39164 ft 387 kts 202°
2026-05-07 11:41 23.45636 39.32556 38932 ft 386 kts 203°
2026-05-07 11:41 23.43078 39.31678 38713 ft 385 kts 203°
2026-05-07 11:41 23.40526 39.30801 38424 ft 383 kts 202°
2026-05-07 11:41 23.38003 39.29933 38117 ft 377 kts 202°
2026-05-07 11:42 23.35509 39.29076 37691 ft 374 kts 203°
2026-05-07 11:42 23.33038 39.28225 37242 ft 371 kts 203°
2026-05-07 11:42 23.30583 39.27378 36788 ft 369 kts 203°
2026-05-07 11:42 23.28134 39.26534 36342 ft 368 kts 203°
2026-05-07 11:43 23.25688 39.25691 35883 ft 369 kts 203°
2026-05-07 11:43 23.23224 39.24842 35394 ft 373 kts 203°
2026-05-07 11:43 23.20735 39.23982 34900 ft 378 kts 202°
2026-05-07 11:43 23.18244 39.23124 34340 ft 382 kts 202°
2026-05-07 11:44 23.15686 39.22243 33697 ft 389 kts 202°
2026-05-07 11:44 23.13090 39.21350 32876 ft 394 kts 202°
2026-05-07 11:44 23.10461 39.20447 32107 ft 399 kts 202°
2026-05-07 11:44 23.07793 39.19532 31314 ft 405 kts 201°
2026-05-07 11:45 23.05083 39.18603 30473 ft 412 kts 201°
2026-05-07 11:45 23.02333 39.17662 29681 ft 415 kts 201°
2026-05-07 11:45 22.99576 39.16720 29125 ft 414 kts 201°
2026-05-07 11:45 22.96842 39.15788 28532 ft 411 kts 201°
2026-05-07 11:46 22.94120 39.14860 27976 ft 409 kts 201°
2026-05-07 11:46 22.91412 39.13936 27401 ft 407 kts 201°
2026-05-07 11:46 22.88724 39.13018 26825 ft 404 kts 201°
2026-05-07 11:46 22.86048 39.12104 26262 ft 402 kts 201°
2026-05-07 11:47 22.83393 39.11196 25676 ft 399 kts 201°
2026-05-07 11:47 22.80723 39.10360 25094 ft 400 kts 196°
2026-05-07 11:47 22.77952 39.09941 24448 ft 405 kts 187°
2026-05-07 11:47 22.75128 39.09883 23961 ft 403 kts 184°
2026-05-07 11:48 22.72377 39.09925 23871 ft 388 kts 184°
2026-05-07 11:48 22.69748 39.09996 23747 ft 376 kts 183°
2026-05-07 11:48 22.67172 39.10076 23579 ft 365 kts 183°
2026-05-07 11:48 22.64669 39.10157 23403 ft 355 kts 183°
2026-05-07 11:49 22.62238 39.10236 23236 ft 345 kts 184°
2026-05-07 11:49 22.59875 39.10312 23081 ft 335 kts 184°
2026-05-07 11:49 22.57570 39.10387 22934 ft 326 kts 184°
2026-05-07 11:49 22.55325 39.10459 22654 ft 322 kts 184°
2026-05-07 11:50 22.53083 39.10529 22217 ft 323 kts 184°
2026-05-07 11:50 22.50838 39.10579 21841 ft 321 kts 184°
2026-05-07 11:50 22.48606 39.10596 21454 ft 320 kts 185°
2026-05-07 11:50 22.46377 39.10607 21075 ft 319 kts 184°
2026-05-07 11:51 22.44159 39.10617 20715 ft 318 kts 184°
2026-05-07 11:51 22.41940 39.10627 20334 ft 318 kts 184°
2026-05-07 11:51 22.39733 39.10638 19963 ft 317 kts 184°
2026-05-07 11:51 22.37530 39.10648 19588 ft 317 kts 184°
2026-05-07 11:52 22.35331 39.10659 19214 ft 316 kts 184°
2026-05-07 11:52 22.33134 39.10671 18841 ft 315 kts 184°
2026-05-07 11:52 22.30970 39.10682 18471 ft 313 kts 183°
2026-05-07 11:52 22.28795 39.10693 18099 ft 311 kts 183°
2026-05-07 11:53 22.26635 39.10705 17686 ft 309 kts 183°
2026-05-07 11:53 22.24495 39.10716 17317 ft 306 kts 183°
2026-05-07 11:53 22.22376 39.10727 16956 ft 303 kts 183°
2026-05-07 11:53 22.20266 39.10738 16592 ft 301 kts 183°
2026-05-07 11:54 22.18172 39.10748 16216 ft 300 kts 183°
2026-05-07 11:54 22.16093 39.10759 15852 ft 298 kts 183°
2026-05-07 11:54 22.14026 39.10769 15497 ft 297 kts 183°
2026-05-07 11:54 22.11966 39.10780 15145 ft 295 kts 183°
2026-05-07 11:55 22.09906 39.10878 14854 ft 299 kts 176°
2026-05-07 11:55 22.07874 39.11433 14434 ft 303 kts 166°
2026-05-07 11:55 22.05886 39.12202 14043 ft 303 kts 164°
2026-05-07 11:55 22.03941 39.12989 13644 ft 302 kts 163°
2026-05-07 11:56 22.01977 39.13782 13186 ft 300 kts 163°
2026-05-07 11:56 22.00029 39.14564 12793 ft 299 kts 163°
2026-05-07 11:56 21.98080 39.15340 12388 ft 298 kts 163°
2026-05-07 11:56 21.96145 39.16109 11989 ft 296 kts 163°
2026-05-07 11:57 21.94213 39.16875 11584 ft 294 kts 163°
2026-05-07 11:57 21.92293 39.17637 11182 ft 293 kts 163°
2026-05-07 11:57 21.90382 39.18398 10781 ft 293 kts 162°
2026-05-07 11:57 21.88465 39.19172 10379 ft 295 kts 162°
2026-05-07 11:58 21.86531 39.19932 9989 ft 296 kts 162°
2026-05-07 11:58 21.84616 39.20681 9746 ft 289 kts 162°
2026-05-07 11:58 21.82735 39.21419 9390 ft 286 kts 163°
2026-05-07 11:58 21.80874 39.22142 9092 ft 282 kts 161°
2026-05-07 11:59 21.79089 39.22857 8962 ft 272 kts 161°
2026-05-07 11:59 21.77348 39.23541 8861 ft 261 kts 162°
2026-05-07 11:59 21.75671 39.24195 8748 ft 252 kts 163°
2026-05-07 11:59 21.74033 39.24835 8487 ft 250 kts 163°
2026-05-07 12:00 21.72399 39.25474 8180 ft 250 kts 163°
2026-05-07 12:00 21.70763 39.26118 7910 ft 250 kts 162°
2026-05-07 12:00 21.69130 39.26765 7608 ft 250 kts 161°
2026-05-07 12:00 21.67496 39.27410 7342 ft 249 kts 162°
2026-05-07 12:01 21.65873 39.28049 7076 ft 248 kts 161°
2026-05-07 12:01 21.64252 39.28690 6777 ft 248 kts 161°
2026-05-07 12:01 21.62625 39.29330 6515 ft 247 kts 161°
2026-05-07 12:01 21.61035 39.29954 6239 ft 246 kts 161°
2026-05-07 12:02 21.59429 39.30584 6003 ft 244 kts 161°
2026-05-07 12:02 21.57850 39.31203 5781 ft 241 kts 161°
2026-05-07 12:02 21.56290 39.31815 5598 ft 236 kts 161°
2026-05-07 12:02 21.54751 39.32418 5353 ft 235 kts 161°
2026-05-07 12:03 21.53221 39.33020 5110 ft 234 kts 160°
2026-05-07 12:03 21.51694 39.33617 4873 ft 232 kts 160°
2026-05-07 12:03 21.50194 39.34204 4717 ft 226 kts 160°
2026-05-07 12:03 21.48710 39.34784 4373 ft 228 kts 160°
2026-05-07 12:04 21.47227 39.35363 4157 ft 224 kts 161°
2026-05-07 12:04 21.45774 39.35933 3882 ft 223 kts 161°
2026-05-07 12:04 21.44318 39.36502 3576 ft 223 kts 161°
2026-05-07 12:04 21.42857 39.37074 3236 ft 226 kts 160°
2026-05-07 12:05 21.41386 39.37655 3040 ft 221 kts 161°
2026-05-07 12:05 21.40006 39.38198 3024 ft 199 kts 161°
2026-05-07 12:05 21.38786 39.38675 3012 ft 172 kts 161°
2026-05-07 12:05 21.37747 39.39079 3006 ft 150 kts 161°
2026-05-07 12:06 21.36799 39.39381 2993 ft 137 kts 171°
2026-05-07 12:06 21.35862 39.39397 2998 ft 136 kts 188°
2026-05-07 12:06 21.34967 39.39059 2997 ft 138 kts 210°
2026-05-07 12:06 21.34243 39.38393 2990 ft 138 kts 229°
2026-05-07 12:07 21.33770 39.37488 2993 ft 140 kts 245°
2026-05-07 12:07 21.33424 39.36503 2990 ft 141 kts 248°
2026-05-07 12:07 21.33093 39.35519 2989 ft 140 kts 246°
2026-05-07 12:07 21.32873 39.34869 2982 ft 140 kts 248°
2026-05-07 12:08 21.32606 39.33861 2992 ft 142 kts 258°
2026-05-07 12:08 21.32637 39.32795 2990 ft 146 kts 278°
2026-05-07 12:08 21.33385 39.31595 2985 ft 148 kts 316°
2026-05-07 12:08 21.34226 39.30957 2995 ft 148 kts 330°
2026-05-07 12:09 21.34853 39.30627 2998 ft 148 kts 335°
2026-05-07 12:09 21.35805 39.30229 2982 ft 149 kts 339°
2026-05-07 12:09 21.36781 39.29845 2986 ft 150 kts 339°
2026-05-07 12:09 21.37763 39.29461 2980 ft 149 kts 339°
2026-05-07 12:10 21.38742 39.29077 2977 ft 151 kts 338°
2026-05-07 12:10 21.39731 39.28685 2985 ft 151 kts 338°
2026-05-07 12:10 21.40716 39.28295 2981 ft 150 kts 339°
2026-05-07 12:10 21.41705 39.27904 2952 ft 152 kts 339°
2026-05-07 12:11 21.42677 39.27519 2845 ft 147 kts 339°
2026-05-07 12:11 21.43625 39.27145 2717 ft 144 kts 339°
2026-05-07 12:11 21.44559 39.26777 2629 ft 142 kts 339°
2026-05-07 12:11 21.45486 39.26412 2515 ft 141 kts 339°
2026-05-07 12:12 21.46403 39.26051 2418 ft 140 kts 339°
2026-05-07 12:12 21.47309 39.25695 2321 ft 137 kts 339°
2026-05-07 12:12 21.48200 39.25343 2230 ft 136 kts 340°
2026-05-07 12:12 21.49083 39.24995 2143 ft 133 kts 340°
2026-05-07 12:13 21.49933 39.24661 2009 ft 132 kts 338°
2026-05-07 12:13 21.50803 39.24316 1961 ft 133 kts 338°
2026-05-07 12:13 21.51657 39.23977 1864 ft 129 kts 340°
2026-05-07 12:13 21.52473 39.23654 1774 ft 124 kts 340°
2026-05-07 12:14 21.53286 39.23333 1696 ft 125 kts 339°
2026-05-07 12:14 21.54118 39.23002 1681 ft 129 kts 338°
2026-05-07 12:14 21.54963 39.22665 1671 ft 130 kts 339°
2026-05-07 12:14 21.55813 39.22330 1662 ft 130 kts 339°
2026-05-07 12:15 21.57078 39.21833 1667 ft 130 kts 339°
2026-05-07 12:15 21.58425 39.21302 1657 ft 131 kts 338°
2026-05-07 12:15 21.59272 39.20967 1558 ft 128 kts 339°
2026-05-07 12:15 21.60108 39.20637 1380 ft 128 kts 340°
2026-05-07 12:16 21.60940 39.20308 1224 ft 127 kts 339°
2026-05-07 12:16 21.61773 39.19978 1053 ft 128 kts 340°
2026-05-07 12:16 21.62610 39.19648 896 ft 128 kts 337°
2026-05-07 12:16 21.63441 39.19311 763 ft 129 kts 338°
2026-05-07 12:17 21.64276 39.18975 584 ft 129 kts 340°
2026-05-07 12:17 21.65107 39.18645 412 ft 128 kts 340°
2026-05-07 12:17 21.65940 39.18316 227 ft 128 kts 338°
2026-05-07 12:17 21.66768 39.18028 40 ft 122 kts 338°
2026-05-07 12:18 21.67448 39.17732 36 ft 90 kts 340°
2026-05-07 12:18 21.67891 39.17560 37 ft 43 kts 330°
2026-05-07 12:18 21.68067 39.17404 34 ft 0 kts 311°
2026-05-07 12:20 21.68083 39.17374 34 ft 10 kts 290°
2026-05-07 12:20 21.68058 39.17317 34 ft 11 kts 211°
2026-05-07 12:20 21.68002 39.17260 34 ft 11 kts 248°
2026-05-07 12:21 21.67965 39.17148 34 ft 10 kts 251°
2026-05-07 12:21 21.67959 39.17130 34 ft 2 kts 251°
2026-05-07 12:21 21.67951 39.17106 34 ft 5 kts 251°
2026-05-07 12:21 21.67925 39.17064 34 ft 11 kts 215°
2026-05-07 12:22 21.67790 39.17079 34 ft 28 kts 160°
2026-05-07 12:22 21.67594 39.17157 35 ft 26 kts 160°
2026-05-07 12:22 21.67486 39.17202 36 ft 17 kts 149°
2026-05-07 12:22 21.67429 39.17270 36 ft 0 kts 126°